DW5766 Weather Reports


time (UTC)temp
F
wind
direction
speed
knots
gust
knots
rain 1hr
in
rain 24hr
in
rain mn
in
humidity
%
barometer
mb
20260504194520 64 242 7.8 14.8 0.00 0.00 0.00 61 1011.0
20260504193015 64 209 3.5 12.2 0.00 0.00 0.00 62 1011.1
20260504191507 64 259 4.3 12.2 0.00 0.00 0.00 62 1011.2
20260504190005 64 258 7.0 13.0 0.00 0.00 0.00 59 1011.3
20260504184509 65 240 7.0 13.9 0.00 0.00 0.00 59 1011.3
20260504183002 66 276 5.2 11.3 0.00 0.00 0.00 59 1011.5
20260504181605 66 150 2.6 12.2 0.00 0.00 0.00 59 1011.5
20260504180157 66 212 1.7 12.2 0.00 0.00 0.00 60 1011.7
20260504174557 66 205 5.2 13.0 0.00 0.00 0.00 58 1011.8
20260504173111 65 166 2.6 10.4 0.00 0.00 0.00 62 1011.9
20260504171553 65 260 6.1 13.0 0.00 0.00 0.00 58 1012.2
20260504081537 47 250 0.0 1.7 0.00 0.00 0.00 68 1013.7
20260504050016 48 247 0.9 2.6 0.00 0.00 0.00 65 1012.9
20260504044511 47 250 0.0 1.7 0.00 0.00 0.00 68 1012.7
20260504043008 45 250 0.0 0.9 0.00 0.00 0.00 72 1012.7
20260504041505 44 250 0.0 0.9 0.00 0.00 0.00 74 1012.6
20260504040005 43 250 0.0 0.0 0.00 0.00 0.00 73 1012.6
20260504034600 43 250 0.0 0.0 0.00 0.00 0.00 72 1012.5
20260504033058 44 250 0.0 0.0 0.00 0.00 0.00 68 1012.5
20260504031624 44 250 0.0 0.0 0.00 0.00 0.00 68 1012.5
20260504030056 44 250 0.0 0.0 0.00 0.00 0.00 67 1012.5
20260504024554 45 250 0.0 0.0 0.00 0.00 0.00 64 1012.5
20260504023054 46 250 0.0 0.0 0.00 0.00 0.00 60 1012.5
20260504021607 47 250 0.0 0.0 0.00 0.00 0.00 58 1012.4
20260504020055 48 250 0.0 0.0 0.00 0.00 0.00 55 1012.5
20260504014551 48 250 0.0 0.9 0.00 0.00 0.00 55 1012.4
20260504013055 47 276 0.0 0.0 0.00 0.00 0.00 55 1012.2
20260504011553 48 276 0.0 0.0 0.00 0.00 0.00 53 1012.0
20260504010047 49 276 0.0 0.0 0.00 0.00 0.00 49 1011.9
20260504004545 51 276 0.0 0.0 0.00 0.00 0.00 45 1011.7
20260504003047 53 276 0.0 0.9 0.00 0.00 0.00 39 1011.5
20260504001557 55 275 0.0 0.9 0.00 0.00 0.00 36 1011.2
20260504000044 56 290 0.9 4.3 0.00 0.00 0.00 34 1011.0
20260503234541 57 266 3.5 6.1 0.00 0.00 0.00 33 1010.9
20260503233040 58 278 1.7 7.0 0.00 0.00 0.00 32 1010.7
20260503231547 58 295 2.6 10.4 0.00 0.00 0.00 31 1010.5
20260503230039 59 238 4.3 8.7 0.00 0.00 0.00 30 1010.5
20260503224539 59 284 5.2 12.2 0.00 0.00 0.00 30 1010.5
20260503223042 59 286 4.3 13.0 0.00 0.00 0.00 30 1010.4
20260503221537 59 316 5.2 13.9 0.00 0.00 0.00 30 1010.3
20260503220038 60 263 3.5 8.7 0.00 0.00 0.00 32 1010.3
20260503214541 59 330 5.2 12.2 0.00 0.00 0.00 31 1010.2
20260503213050 59 296 2.6 13.0 0.00 0.00 0.00 33 1010.1
20260503211533 59 268 5.2 12.2 0.00 0.00 0.00 32 1010.0
20260503210028 59 292 7.0 13.9 0.00 0.00 0.00 33 1010.1
20260503204536 58 313 6.1 13.9 0.00 0.00 0.00 33 1010.0
20260503203025 59 307 6.1 14.8 0.00 0.00 0.00 34 1009.9
20260503201525 58 262 7.0 16.5 0.00 0.00 0.00 34 1010.1
20260503200021 58 252 5.2 15.6 0.00 0.00 0.00 36 1010.1